Location: Maiden
(35.5760°N, 81.2120°W)
Time: 11:05:34
(UTC-04:00)

Explorer 11/Cluster Stage 4 - Visible Passes

Search period start: 04 August 2020 00:00
Search period end: 14 August 2020 00:00
Orbit: 467 x 1258 km, 28.8° (Epoch: 04 August)

Date Brightness Start Highest point End Pass type
(mag) Time Alt. Az. Time Alt. Az. Time Alt. Az.
04 Aug 7.0 04:40:45 40° SSW 04:41:38 43° S 04:46:27 10° ESE visible
05 Aug 7.0 04:30:34 43° SSW 04:30:47 43° S 04:35:49 10° ESE visible
06 Aug 7.2 04:20:30 42° S 04:20:30 42° S 04:25:09 10° ESE visible
06 Aug 7.7 06:03:21 10° WSW 06:07:58 24° SSW 06:11:52 10° SSE visible
07 Aug 7.5 04:10:33 37° SSE 04:10:33 37° SSE 04:14:28 10° ESE visible
07 Aug 7.8 05:52:42 11° WSW 05:57:05 23° SSW 06:01:01 10° SSE visible
08 Aug 8.0 04:00:45 29° SE 04:00:45 29° SE 04:03:44 10° ESE visible
08 Aug 7.9 05:42:55 14° WSW 05:46:09 21° SSW 05:50:08 10° SSE visible
08 Aug 9.1 22:15:38 10° SSW 22:17:11 14° S 22:17:11 14° S visible
09 Aug 8.5 03:51:08 20° SE 03:51:08 20° SE 03:52:58 10° SE visible
09 Aug 8.1 05:33:19 17° SW 05:35:12 20° SSW 05:39:11 10° SSE visible
09 Aug 8.7 22:04:06 10° SSW 22:08:04 20° S 22:08:04 20° S visible
10 Aug 9.1 03:41:42 12° SE 03:41:42 12° SE 03:42:10 10° SE visible
10 Aug 8.2 05:23:53 18° SW 05:24:14 18° SSW 05:28:08 10° SSE visible
10 Aug 8.5 21:52:42 10° SSW 21:58:43 24° SSE 21:58:49 24° SSE visible
10 Aug 9.3 23:39:44 10° SW 23:41:00 15° SW 23:41:00 15° SW visible
11 Aug 8.5 05:14:37 16° SSW 05:14:37 16° SSW 05:17:00 10° S visible
11 Aug 8.3 21:41:23 10° SSW 21:47:37 26° SSE 21:49:22 24° SE visible
11 Aug 8.9 23:28:38 10° WSW 23:31:33 23° SW 23:31:33 23° SW visible
12 Aug 8.9 05:05:28 11° S 05:05:28 11° S 05:05:46 10° S visible
12 Aug 8.3 21:30:11 10° SSW 21:36:31 29° SSE 21:39:43 22° ESE visible
12 Aug 8.4 23:17:35 10° WSW 23:21:52 32° SW 23:21:52 32° SW visible
13 Aug 8.2 21:19:03 10° SW 21:25:26 31° SSE 21:29:51 19° ESE visible
13 Aug 8.1 23:06:35 10° WSW 23:12:00 41° SSW 23:12:00 41° SSW visible
